Regional Weather Roundup
Issued by NWS

Home | Current Version | Previous Version | Graphics & Text | Print | Product List | Glossary On
Versions: 1 2 3 4 5 6 7 8 9 10 11 12 13 14 15 16 17 18 19 20 21 22 23 24 25 26 27 28 29 30 31 32 33 34 35 36 37 38 39 40 41 42 43 44 45 46 47 48 49 50
259
ASUS43 KIND 182009
RWRIN

WEATHER ROUNDUP FOR INDIANA
NATIONAL WEATHER SERVICE INDIANAPOLIS IN
400 PM EDT WED OCT 18 2017

NOTE: "FAIR" INDICATES FEW OR NO CLOUDS BELOW 12,000 FEET WITH NO
SIGNIFICANT WEATHER AND/OR OBSTRUCTIONS TO VISIBILITY.

* - STATION DOES NOT REPORT WEATHER SUCH AS PRECIPITATION OR FOG.

+ - STATION NOT QUALITY CONTROLLED BY THE NATIONAL WEATHER SERVICE.
    USE DATA WITH CAUTION...ESPECIALLY DEWPOINT AND RELATIVE
    HUMIDITY OBSERVATIONS.

INZ001>003-010>013-019-020-182100-
NORTHWEST INDIANA

CITY           SKY/WX    TMP DP  RH WIND       PRES   REMARKS
GARY /AIRPORT/ SUNNY     70  36  28 S12G24    30.08F
KNOX *+        SUNNY     70  37  30 S20       30.12F
LA PORTE +     SUNNY     68  40  35 S13G18    30.12F
MONTICELLO +   SUNNY     69  39  33 S13G18    30.14F
RENSSELAER +   SUNNY     70  25  18 S15G21    30.12F
VALPARAISO     SUNNY     71  40  32 S14       30.11F

$$

LMZ046-743>745-182100-
SOUTHERN LAKE MICHIGAN

STATION/POSITION TIME  TEMP    WIND        PRES    WAVE
                       AIR SEA DIR/SP/G            HT
                 (UTC) (F)     (DEG/KT/KT) (MB)    (FT)
BURNS HARBOR     1940   68     180/ 16/ 23 1019.0F
MICHIGAN CITY    1940   67     180/ 14/ 18   N/A
5NW MICH CITY    2000   65 58  200/ 16/ 21   N/A     2

$$

INZ004-005-014>016-021>024-182100-
NORTH CENTRAL INDIANA

CITY           SKY/WX    TMP DP  RH WIND       PRES   REMARKS
ELKHART        SUNNY     68  39  34 S14G21    30.13F
GOSHEN         SUNNY     68  39  34 S15       30.14F
LOGANSPORT +   SUNNY     68  39  34 S17G26    30.16F
PERU/GRISSOM   SUNNY     69  41  36 SW16G22   30.15F
SOUTH BEND     SUNNY     67  39  35 S21       30.12F
WARSAW +       SUNNY     68  39  34 S8        30.14F

$$

INZ006>009-017-018-025>027-182100-
NORTHEAST INDIANA

CITY           SKY/WX    TMP DP  RH WIND       PRES   REMARKS
AUBURN +       SUNNY     68  36  30 SW10G17   30.17F
FORT WAYNE     MOSUNNY   69  40  34 S14G22    30.17F
HUNTINGTON +   SUNNY     68  37  32 S12G17    30.17F
KENDALLVILLE + SUNNY     69  41  36 S14       30.15F

$$

INZ028-029-035-036-043>045-051>053-182100-
WEST CENTRAL INDIANA

CITY           SKY/WX    TMP DP  RH WIND       PRES   REMARKS
GREENCASTLE +  SUNNY     68  45  42 S9        30.19F
LAFAYETTE      SUNNY     68  41  37 S13G20    30.14F
TERRE HAUTE    SUNNY     69  44  40 S12G21    30.17F

$$

INZ030>032-037>040-046>048-054>057-064-065-182100-
CENTRAL INDIANA

CITY           SKY/WX    TMP DP  RH WIND       PRES   REMARKS
ANDERSON       SUNNY     68  41  37 S12G17    30.19
CP ATTERBURY + SUNNY     70  41  35 S8        30.20F
FRANKFORT +    MOSUNNY   72  43  35 S9        30.18F
GREENWOOD *+   SUNNY     74  45  34 SW9       30.20F
INDIANAPOLIS   MOSUNNY   69  44  40 S12       30.19F
-EAGLE CREEK   SUNNY     69  41  36 SW8       30.18F
KOKOMO +       SUNNY     68  42  38 S15G23    30.17F
MARION +       SUNNY     68  39  34 S15       30.18F
MT COMFORT *+  SUNNY     70  48  46 SW13G22   30.20F
SHELBYVILLE    SUNNY     70  41  34 S9        30.19F
ZIONSVILLE +   SUNNY     67  43  41 S10G16    30.19S

$$

INZ033-034-041-042-049-050-058-059-182100-
EAST CENTRAL INDIANA

CITY           SKY/WX    TMP DP  RH WIND       PRES   REMARKS
MUNCIE         SUNNY     71  39  31 SW10G18   30.18F
RICHMOND +     SUNNY     68  39  34 SW10G18   30.22F

$$

INZ060-061-067>069-081>083-085>088-182100-
SOUTHWEST INDIANA

CITY           SKY/WX    TMP DP  RH WIND       PRES   REMARKS
EVANSVILLE     SUNNY     70  44  39 S9        30.20F
HUNTINGBURG +  SUNNY     70  46  42 S12G18    30.21F
WASHINGTON +   SUNNY     71  40  33 S10       30.19F

$$

INZ062-063-066-070>080-084-089>092-182100-
SOUTH CENTRAL AND SOUTHEAST INDIANA

CITY           SKY/WX    TMP DP  RH WIND       PRES   REMARKS
BLOOMINGTON    SUNNY     71  43  36 SW9       30.19F
MADISON *+     SUNNY     70  37  30 S6        30.25F
NORTH VERNON + SUNNY     68  43  40 S7        30.22F

$$





USA.gov is the U.S. government's official web portal to all federal, state and local government web resources and services.